Погода в Учкулане

Россия / Карачаево-Черкесская Республика     43°27′19″N   42°05′55″E
темп.,
°C
ветер,
м/с
пор.,
м/с
влажн.,
%
обл.,
%
осадки,
мм/ч
давл.,
гПа
погр.,
м
8 марта, пн
пн800:00−9ююз686335 0.0 1023192
03:00−11ююз347718 0.0 102280
06:00−12ююз238337 0.0 102251
09:00−5ююз147750 0.0 1021359
12:00−4сз138045 0.1 1019738
15:00−5с138470 0.7 1017444
18:00−9ююз119390 0.4 101955
21:00−12ю348261 0.6 102083
9 марта, вт
вт900:00−12ю458019 0.0 1019128
03:00−12ю467927 0.0 1019153
06:00−13ю577771 0.0 1019151
09:00−8ююз476336 0.0 1018501
12:00−5ююз565742 0.0 10171306
15:00−5ююз575921 0.0 10171492
18:00−10ююз58741 0.0 1019271
21:00−12ююз69722 0.0 1022258
10 марта, ср
ср1000:00−13ююз69640 0.0 1023234
03:00−13ююз697232 0.0 1024246
06:00−13ю587439 0.0 1024189
09:00−8ююз366720 0.0 1024539
12:00−5ююз45620 0.0 1022925
15:00−4ююз246421 0.1 1021943
18:00−9ю2481100 0.0 1020148
21:00−9ю2373100 0.1 1020120
11 марта, чт
чт1100:00−9ююз3578100 0.0 1019177
03:00−9ююз0290100 0.1 1018107
06:00−10ссв1295100 1.1 1017117
09:00−9с2293100 2.4 1016237
12:00−9с3392100 2.0 1015373
15:00−10с3394100 4.8 1016374
18:00−13с2397100 2.4 1018245
21:00−15с2298100 3.8 1019203
12 марта, пт
пт1200:00−16с1298100 1.6 1020130
03:00−17с1199100 2.6 1022106
06:00−18св1199100 0.5 102431
09:00−15ссв1292100 0.8 1026261
12:00−11с2289100 0.4 1026453
15:00−10с3393100 1.1 1026471
18:00−16с00100100 0.3 102920
21:00−16ююз448268 0.3 103244